If you wish to contribute or participate in the discussions about articles you are invited to join SKYbrary as a registered user

 Actions

Sarajevo

From SKYbrary Wiki

LQSA
Airport
ICAO: LQSA
Summary
Name Sarajevo
Region Europe
Territory Bosnia and Herzegovina BA.gif
Location Butmir
Serving
Coordinates 43° 49' 28.00" N, 18° 19' 53.00" E
Runways
Designator Length Width Surface ROPS
12/30 2641 m8,664.698 ft
46 m150.919 ft
ASP yes/yes


METAR
Observation LQSA 242000Z VRB02KT 8000 BKN027 M00/M00 Q1026
Station Sarajevo
Date/Time 24 November 2020 20:00:00
Wind direction °
Wind speed 02 kts
Lowest cloud amount broken clouds
Temperature
Dew point
Humidity 100%
QNH 1026 hPa
Weather condition n/a

Sarajevo Airport

ICAO: LQSA IATA: SSJ

Description

Sarajevo International Airport, also known as Butmir Airport, is the main international airport in Bosnia and Herzegovina, located 3.3 nm6,111.6 m
6.112 km
20,051.181 ft
southwest of the capital city of Sarajevo in the suburb of Butmir.

Climatology

Humid continental climate (Köppen climate classification Dfa) - characterized by four seasons: cold, windy, snowy winters, mild springs, hot, humid summers, and crisp and relatively short autumns. Precipitation reaches its lowest in January and February and peaks in summer and latter half of spring.

Maps

Terrain

Loading map...

Airport Layout

Loading map...


Accidents & Serious Incidents at or in vicinity of LQSA

None on SKYbrary